Temperature
17 17 17 17 17 17 17 18 18 17 17 17 17 17 17 17 18 17 17 17 17 17 17 17 17 17 17 17 18 18 18 18 18 18 18 18 18 18 18 18 18 18 18
17 17 17 17 17 17 17 17 17 17 17 17 17 17 17 17 17 17 17 17 17 17 17 17 17 17 17 17 17 17 17 18 17 17 17 17 17 18 18 18 18 17 17
17 17 17 17 17 17 17 17 17 17 17 17 17 17 17 17 17 17 17 17 17 17 17 17 17 17 17 17 17 17 17 17 17 17 17 17 17 17 17 17 17 17 17
17 17 17 17 17 17 17 17 17 17 17 17 17 17 17 17 17 17 17 17 17 17 17 17 17 17 17 17 17 17 17 17 17 17 17 17 17 17 17 17 17 17 17
17 17 17 17 17 17 17 17 17 17 17 17 17 17 17 17 17 17 17 17 17 17 17 17 17 17 17 17 17 17 17 17 17 17 17 17 17 17 17 17 17 17 17
17 17 17 17 17 17 17 17 17 17 17 17 17 17 17 17 17 17 17 17 17 17 17 17 17 17 17 17 17 17 17 17 17 17 17 17 17 17 17 17 17 17 17
17 17 17 17 17 17 17 17 17 17 17 17 17 17 16 16 16 16 16 16 16 16 17 17 16 16 16 16 16 17 17 17 17 17 17 17 17 17 17 17 17 17 17
17 17 17 17 17 17 17 17 17 17 17 17 16 16 16 16 16 16 16 16 16 16 16 16 16 16 16 16 16 16 16 16 16 16 16 16 16 16 16 16 17 17 17
17 17 17 17 17 17 17 16 16 16 16 16 16 16 16 16 16 16 16 16 16 16 16 16 16 16 16 16 16 16 16 16 16 16 16 16 16 16 16 16 16 16 16
17 17 17 17 17 17 16 16 16 16 16 16 16 16 16 16 16 16 16 16 16 16 16 16 16 16 16 16 16 16 16 16 16 16 16 16 16 16 16 16 16 16 16
17 17 17 17 17 17 17 16 16 16 16 16 16 16 16 16 16 16 16 16 16 16 16 16 16 16 16 16 16 16 16 16 16 16 16 16 16 16 16 16 16 16 16
17 17 17 17 17 17 17 17 16 16 16 16 16 16 16 16 16 16 16 16 16 16 16 16 16 16 16 16 15 15 15 15 15 15 15 16 16 16 16 16 16 16 16
17 17 17 17 17 17 17 17 16 16 16 16 16 16 16 16 16 16 16 16 16 16 16 16 16 16 16 15 15 15 15 15 15 15 15 15 15 16 16 16 16 15 15
17 17 17 17 17 16 16 16 16 16 16 16 16 16 16 16 16 16 15 15 15 16 16 16 16 15 15 15 15 15 15 15 15 15 15 15 15 15 15 15 15 15 15
17 17 17 17 17 16 16 16 16 16 16 16 16 16 16 16 16 16 15 15 15 15 15 15 15 15 15 15 15 15 15 15 15 15 15 15 15 15 15 15 15 15 15
17 17 17 17 16 16 16 16 16 16 16 16 16 16 16 16 16 15 15 15 15 15 15 15 15 15 15 15 15 15 15 15 15 15 15 15 15 15 15 15 15 14 14
17 17 16 16 16 16 16 16 16 16 16 16 16 16 16 16 16 15 15 15 15 15 15 15 15 15 15 15 15 14 14 14 14 14 14 14 14 14 14 14 14 14 14
17 17 17 16 16 16 16 16 16 16 16 16 16 16 16 16 15 15 15 15 15 15 15 15 15 15 15 14 14 14 14 14 14 14 14 14 14 14 14 14 14 14 14
17 17 17 17 16 16 16 16 16 16 16 16 16 16 15 15 15 15 15 15 15 15 15 15 15 15 14 14 14 14 14 14 14 14 14 14 14 14 14 14 14 14 14
17 17 17 16 16 16 16 16 16 16 16 16 15 15 15 15 15 15 15 15 15 15 15 15 15 14 14 14 14 14 13 13 13 13 13 13 13 13 13 13 13 14 14
17 17 16 16 16 16 16 16 16 16 16 15 15 15 15 15 15 15 15 15 15 15 14 14 14 14 14 14 14 13 13 13 13 13 13 13 13 13 13 13 13 13 13
17 17 17 16 16 16 16 16 16 16 15 15 15 15 15 15 15 15 14 14 14 14 14 14 14 14 14 14 14 13 13 13 13 13 13 13 13 13 13 13 13 13 13
17 17 17 16 16 16 16 16 16 15 15 15 15 15 15 15 15 14 14 14 14 14 14 14 14 14 14 14 13 13 13 13 12 12 12 12 13 13 13 13 13 13 13
17 17 17 17 16 16 16 16 16 15 15 15 15 15 15 15 14 14 14 14 14 14 14 14 14 14 14 14 13 13 13 13 13 12 12 12 12 12 12 12 12 12 12
17 17 17 17 16 16 16 16 15 15 15 15 15 15 15 15 14 14 14 14 14 14 14 14 14 13 13 13 13 13 13 13 13 12 12 12 12 12 12 12 12 12 12
17 17 17 17 16 16 16 16 15 15 15 15 15 15 15 15 14 14 14 14 14 14 14 14 13 13 13 13 13 13 13 13 13 13 12 12 12 12 12 12 12 11 11
Wind_Speed
2 3 2 5 6 7 8 9 10 10 11 11 12 12 12 12 12 11 11 11 10 10 10 10 9 10 9 10 10 10 10 11 11 11 11 11 10 10 10 10 9 8 9
0 2 3 6 7 8 8 9 10 10 10 11 11 11 11 11 11 12 11 11 10 10 11 10 9 10 10 10 10 11 11 11 11 11 11 11 10 10 10 10 9 9 10
2 2 4 7 8 8 9 9 10 10 10 11 11 12 12 11 11 12 11 11 11 11 11 11 10 11 11 11 11 11 12 12 12 12 11 9 9 10 10 11 11 11 10
3 3 4 7 8 8 9 9 10 11 11 11 12 12 12 12 11 11 11 11 11 12 12 13 13 12 12 11 11 12 12 12 12 11 10 9 8 10 11 11 11 11 11
3 4 4 7 8 8 9 9 9 10 10 11 11 11 12 12 11 11 11 11 12 12 12 12 13 13 13 12 13 13 13 13 12 11 9 9 8 10 10 11 11 11 11
3 3 4 7 8 8 8 9 9 9 10 10 10 10 11 10 10 11 11 11 11 12 12 12 12 13 13 13 14 13 13 13 11 10 9 9 8 9 10 10 11 10 11
3 4 5 6 7 8 8 8 8 9 9 9 9 9 9 10 10 10 11 11 11 12 11 12 12 13 13 13 13 13 13 12 11 9 8 8 8 10 10 11 11 11 11
4 4 4 5 6 7 7 7 8 8 8 9 9 9 9 9 9 9 9 10 11 11 11 12 13 13 13 13 13 13 13 12 10 9 8 8 8 10 10 11 11 11 11
5 5 5 5 4 5 6 7 7 7 8 8 8 8 8 8 8 9 9 9 10 11 11 12 13 13 13 13 13 14 13 13 10 8 8 7 8 9 10 10 10 11 11
5 5 5 5 5 5 5 5 6 6 7 8 8 8 8 8 8 8 9 9 10 11 12 12 13 13 13 13 13 13 13 12 10 9 7 8 9 9 10 10 10 10 10
3 3 4 4 4 4 4 5 6 6 7 7 7 8 8 8 8 7 8 9 10 11 12 12 13 13 13 13 13 13 12 10 9 8 8 9 9 9 10 10 10 10 10
1 2 2 2 3 4 4 5 5 6 7 7 7 7 7 7 7 7 9 10 10 11 12 13 13 12 12 11 12 12 10 10 9 8 9 10 10 10 9 9 9 9 10
1 1 1 1 2 3 3 4 4 4 5 5 6 6 6 6 7 8 8 8 9 10 10 11 11 10 10 9 9 10 10 9 9 8 10 11 11 10 10 10 9 9 10
1 0 1 1 2 2 3 3 3 3 4 4 4 5 5 4 5 5 5 7 7 8 8 9 8 10 10 11 10 10 10 9 9 9 10 13 12 11 11 11 11 10 11
1 1 1 2 2 2 3 2 3 2 3 3 4 5 5 4 3 4 5 6 6 7 8 7 8 8 8 9 9 9 9 9 10 10 10 13 13 12 12 12 12 11 11
2 1 1 2 2 3 2 2 2 2 3 3 4 4 5 5 4 4 4 5 6 7 8 8 7 7 6 7 7 8 8 9 9 10 10 11 13 13 13 12 12 12 11
3 2 2 3 2 3 2 2 3 3 3 3 3 4 5 5 6 5 4 4 5 7 8 8 8 7 6 6 6 7 8 9 9 10 11 11 11 13 14 13 12 12 11
3 2 2 3 3 3 3 3 3 3 4 4 4 5 5 6 7 6 4 4 5 7 7 5 4 5 5 5 5 5 6 8 9 10 10 11 11 11 12 13 12 11 11
3 3 3 3 4 4 3 3 4 4 4 4 5 4 5 6 7 7 5 4 6 6 5 4 4 4 5 5 5 5 5 6 7 9 9 11 11 11 11 11 11 12 11
3 3 3 3 3 4 4 3 3 3 3 4 4 4 4 5 6 7 5 5 6 4 4 4 5 4 3 4 5 6 5 5 6 7 7 9 10 11 11 11 10 10 11
3 3 3 4 3 3 3 2 2 1 1 2 2 3 3 4 5 6 5 4 4 4 4 4 4 5 3 3 4 4 5 5 6 5 6 7 8 10 11 11 10 9 9
4 4 3 4 4 3 3 2 2 2 1 1 2 2 2 3 4 5 5 4 4 4 4 4 4 3 2 2 2 2 2 3 4 5 4 5 6 8 9 10 11 10 10
5 5 5 5 4 4 3 3 3 3 3 2 1 1 1 2 3 4 5 5 4 4 4 4 4 4 2 0 1 3 2 1 1 3 4 4 5 5 6 7 9 10 10
6 5 5 5 4 4 4 4 4 3 2 2 1 0 1 2 2 4 5 5 4 3 4 3 3 2 3 2 1 2 2 3 2 1 2 3 4 4 4 5 6 8 9
6 5 5 5 4 4 5 5 5 3 2 1 1 1 1 1 1 3 4 4 4 3 3 3 3 2 2 3 2 1 2 2 2 2 0 2 3 3 3 4 5 6 7
4 5 5 5 4 4 5 5 5 5 4 3 2 1 0 0 0 1 3 3 3 3 3 3 3 2 2 2 2 2 2 2 2 2 2 1 1 2 2 3 4 4 5
Wind_Direction
306 315 30 69 76 79 79 78 81 84 85 87 88 89 92 93 92 89 87 87 83 81 81 77 77 79 82 81 78 81 83 82 80 78 77 79 82 82 82 83 80 75 83
199 340 72 78 80 83 83 83 86 88 88 88 88 89 91 91 91 89 85 82 80 79 77 73 76 79 80 81 79 81 80 79 77 75 74 73 76 77 80 81 83 83 82
85 54 80 87 86 86 85 85 85 89 88 89 88 87 88 88 88 86 84 80 77 76 72 68 79 84 82 81 81 80 80 79 76 75 69 61 67 76 79 80 84 85 83
94 76 87 93 89 84 84 85 86 90 90 89 88 86 85 86 86 83 82 79 76 75 72 71 80 85 83 84 82 81 80 79 77 74 63 55 62 77 78 79 80 83 82
81 77 93 94 92 86 83 82 88 91 90 89 88 87 85 84 84 81 80 79 76 75 75 74 77 81 84 86 85 82 81 77 76 67 60 56 60 78 80 81 81 82 82
81 82 97 98 93 87 84 82 85 89 89 87 86 85 84 85 83 81 78 76 74 73 73 74 77 80 84 85 85 82 81 76 69 60 57 58 64 78 81 83 81 81 83
84 74 86 97 95 91 88 82 82 86 86 85 83 82 82 84 84 79 75 73 70 70 71 75 79 81 82 84 83 80 78 76 68 60 55 58 72 78 79 79 78 77 80
80 67 72 87 89 85 80 78 80 85 84 82 80 78 79 82 80 76 75 73 71 68 70 74 81 82 82 82 81 79 74 71 65 59 55 59 75 77 77 78 76 75 75
59 55 47 52 66 74 74 75 77 79 79 79 79 77 76 77 76 75 75 76 72 70 72 76 81 81 84 84 81 78 72 66 58 55 58 60 73 78 78 76 75 76 75
54 46 41 40 44 48 56 68 72 72 70 71 72 69 67 66 65 66 67 72 72 70 70 74 81 80 81 83 80 76 69 61 52 52 51 62 71 79 80 77 75 75 79
51 37 38 39 37 42 45 52 56 58 56 56 59 60 54 51 52 56 60 67 71 70 69 71 75 76 76 79 78 73 63 53 51 49 52 64 69 77 82 80 77 76 79
34 25 45 37 29 39 43 44 43 49 53 55 57 56 55 53 54 58 59 65 70 68 68 70 72 71 68 65 67 64 56 51 49 47 53 61 67 71 80 85 83 80 81
198 34 59 54 36 50 47 47 42 46 50 53 55 56 63 59 54 53 56 55 62 67 68 67 68 68 68 65 63 59 54 51 47 44 49 57 63 70 77 76 77 80 83
123 97 77 99 75 58 59 53 51 49 48 51 57 68 78 71 60 56 63 62 65 72 75 72 74 71 69 66 65 60 54 53 46 41 46 53 55 64 71 70 72 77 81
159 161 102 110 110 81 64 53 59 54 57 58 65 73 88 89 79 73 71 71 73 79 81 79 76 73 68 62 62 61 55 52 49 45 41 47 49 55 61 64 69 73 75
193 194 131 111 113 101 90 69 64 73 79 77 75 86 99 104 100 89 78 75 74 82 86 84 81 78 71 68 60 57 55 54 51 48 43 39 43 49 56 61 65 68 72
197 186 159 141 111 111 105 80 74 80 91 84 77 92 101 106 107 101 91 82 84 92 92 89 81 78 72 66 56 54 55 52 50 48 45 41 39 42 48 54 60 64 68
173 167 173 146 133 129 112 88 79 87 90 88 86 88 96 106 109 105 97 90 97 98 94 90 81 77 69 64 57 49 49 49 48 51 49 44 40 37 39 46 52 57 62
166 155 145 131 139 140 117 94 83 84 84 87 88 87 97 107 114 112 106 104 105 98 88 93 78 86 85 75 67 54 45 46 43 50 48 44 42 41 38 38 44 48 52
159 145 137 125 124 119 101 88 73 64 60 66 78 87 101 112 117 114 109 109 110 97 85 87 90 75 86 84 77 61 46 43 47 44 42 44 43 41 39 38 38 39 43
146 141 146 137 139 128 115 116 107 87 50 45 56 82 100 114 122 121 117 115 115 111 114 110 101 91 79 85 80 59 42 43 48 39 38 41 40 38 40 39 37 39 40
167 166 165 163 164 161 150 141 131 125 99 59 36 55 88 113 126 132 130 133 128 118 114 115 109 104 102 82 99 92 47 18 23 31 32 40 34 34 38 38 40 43 48
179 183 184 180 175 171 148 109 84 65 51 39 28 8 16 99 126 135 140 138 141 142 148 149 140 130 143 85 79 127 132 185 353 8 25 30 27 28 28 34 37 41 44
198 187 182 179 175 167 153 146 146 153 165 211 198 204 22 83 118 134 141 141 147 149 155 168 155 143 140 146 74 61 113 143 144 42 359 11 21 25 20 27 30 35 38
194 184 181 173 172 166 164 168 162 164 179 139 95 103 52 39 85 127 144 144 149 155 164 164 153 153 151 155 151 128 91 71 103 138 166 343 2 1 8 19 26 31 32
182 178 171 172 181 176 175 175 175 176 168 152 154 166 192 17 34 130 144 148 155 159 170 171 165 166 162 151 154 154 155 153 165 146 158 211 318 329 350 14 21 20 32
Height
1525 1524 1524 1523 1523 1522 1522 1521 1521 1521 1521 1521 1521 1521 1521 1522 1522 1522 1522 1523 1523 1523 1523 1522 1522 1523 1523 1524 1524 1525 1525 1525 1525 1525 1525 1525 1525 1525 1525 1525 1525 1525 1525
1526 1525 1525 1524 1524 1524 1523 1523 1523 1523 1523 1523 1523 1523 1523 1523 1524 1524 1524 1524 1524 1524 1523 1522 1521 1523 1524 1525 1526 1526 1526 1526 1527 1527 1527 1527 1527 1527 1527 1527 1527 1526 1526
1527 1526 1526 1526 1525 1525 1525 1525 1525 1525 1524 1524 1524 1525 1525 1525 1525 1525 1525 1525 1525 1525 1523 1520 1518 1522 1525 1526 1527 1527 1528 1528 1528 1528 1528 1528 1528 1528 1528 1528 1528 1528 1528
1528 1528 1528 1528 1527 1527 1527 1527 1527 1527 1526 1526 1526 1527 1527 1527 1527 1527 1527 1527 1527 1526 1525 1521 1520 1524 1527 1528 1528 1529 1529 1529 1529 1530 1530 1530 1530 1530 1530 1529 1529 1529 1529
1529 1529 1529 1529 1529 1529 1529 1529 1529 1529 1529 1529 1529 1529 1529 1529 1529 1529 1529 1529 1529 1528 1528 1527 1526 1528 1529 1529 1530 1530 1531 1531 1531 1531 1531 1531 1531 1531 1531 1531 1531 1531 1531
1531 1531 1531 1531 1531 1531 1531 1531 1531 1531 1531 1531 1531 1531 1531 1531 1531 1531 1531 1531 1530 1530 1530 1530 1530 1530 1531 1532 1532 1532 1532 1533 1533 1533 1533 1533 1533 1533 1533 1533 1533 1533 1533
1533 1533 1533 1533 1533 1533 1533 1533 1533 1533 1533 1533 1533 1533 1533 1533 1533 1533 1533 1533 1532 1532 1532 1532 1532 1533 1533 1534 1534 1534 1534 1534 1534 1534 1534 1534 1534 1535 1534 1534 1534 1534 1534
1534 1534 1535 1535 1535 1535 1535 1535 1535 1535 1535 1535 1535 1535 1535 1535 1535 1535 1535 1535 1534 1534 1534 1534 1535 1535 1536 1536 1536 1536 1536 1536 1536 1536 1536 1536 1536 1536 1536 1536 1536 1536 1536
1536 1536 1536 1537 1537 1537 1537 1537 1537 1537 1537 1537 1536 1536 1536 1537 1537 1537 1537 1537 1537 1537 1537 1537 1537 1537 1538 1538 1538 1538 1538 1538 1538 1537 1537 1537 1537 1537 1537 1537 1537 1537 1537
1538 1538 1538 1538 1539 1539 1539 1539 1539 1539 1539 1539 1539 1538 1538 1538 1539 1539 1539 1539 1539 1539 1539 1539 1539 1539 1540 1540 1540 1540 1540 1540 1539 1539 1539 1539 1539 1539 1539 1539 1539 1538 1538
1539 1539 1540 1540 1540 1541 1541 1541 1541 1541 1541 1541 1541 1541 1540 1540 1540 1541 1541 1541 1541 1541 1541 1541 1541 1541 1542 1542 1542 1542 1542 1541 1541 1541 1541 1541 1540 1540 1540 1540 1540 1540 1540
1540 1540 1541 1541 1542 1542 1542 1543 1543 1543 1543 1543 1543 1543 1542 1542 1543 1543 1543 1543 1543 1543 1543 1543 1543 1544 1544 1544 1544 1544 1544 1543 1543 1543 1543 1542 1542 1542 1541 1541 1541 1541 1541
1541 1542 1542 1543 1543 1544 1544 1544 1544 1544 1544 1544 1544 1544 1544 1544 1544 1544 1544 1545 1545 1545 1545 1545 1545 1545 1546 1546 1546 1546 1545 1545 1545 1545 1544 1544 1544 1543 1543 1542 1542 1542 1542
1542 1543 1543 1544 1545 1545 1545 1546 1546 1546 1546 1546 1546 1546 1546 1546 1546 1546 1546 1546 1547 1547 1547 1547 1547 1547 1547 1547 1547 1547 1547 1547 1547 1546 1546 1545 1545 1545 1544 1543 1543 1543 1543
1542 1543 1544 1545 1546 1546 1547 1547 1547 1547 1547 1547 1547 1547 1548 1548 1548 1548 1548 1548 1548 1548 1549 1549 1549 1549 1549 1549 1549 1549 1548 1548 1548 1548 1547 1547 1546 1546 1546 1545 1545 1545 1545
1543 1544 1545 1546 1547 1547 1548 1548 1548 1548 1549 1549 1549 1549 1549 1549 1549 1549 1549 1549 1549 1550 1550 1550 1550 1550 1550 1550 1550 1550 1550 1550 1549 1549 1549 1548 1548 1548 1547 1547 1546 1546 1546
1544 1545 1545 1546 1547 1548 1549 1549 1549 1549 1550 1550 1550 1550 1550 1550 1550 1550 1550 1550 1551 1551 1551 1551 1551 1551 1551 1551 1551 1551 1551 1551 1551 1550 1550 1550 1549 1549 1549 1548 1548 1548 1547
1544 1545 1546 1547 1548 1548 1549 1550 1550 1550 1550 1551 1551 1551 1551 1551 1551 1552 1552 1552 1552 1552 1552 1552 1552 1552 1552 1552 1552 1552 1552 1552 1552 1552 1551 1551 1550 1550 1550 1550 1549 1549 1548
1545 1546 1546 1547 1548 1549 1549 1550 1551 1551 1551 1551 1552 1552 1552 1552 1552 1553 1553 1553 1553 1553 1553 1553 1553 1553 1553 1553 1553 1553 1553 1553 1553 1553 1552 1552 1552 1551 1551 1551 1550 1550 1549
1545 1546 1546 1547 1548 1549 1549 1550 1551 1551 1552 1552 1552 1552 1553 1553 1553 1553 1553 1553 1553 1553 1554 1554 1554 1554 1554 1554 1554 1554 1554 1554 1554 1554 1554 1553 1553 1552 1552 1551 1551 1550 1550
1544 1545 1546 1547 1548 1549 1549 1550 1551 1551 1552 1552 1553 1553 1553 1553 1553 1554 1554 1554 1554 1554 1554 1554 1555 1555 1555 1555 1555 1555 1555 1555 1555 1555 1555 1554 1554 1553 1553 1552 1551 1550 1550
1544 1545 1546 1547 1548 1548 1549 1550 1551 1552 1552 1552 1553 1553 1553 1553 1554 1554 1554 1554 1554 1554 1554 1555 1555 1555 1555 1555 1556 1555 1556 1557 1556 1556 1556 1555 1555 1554 1553 1552 1551 1551 1550
1542 1544 1545 1546 1547 1548 1549 1550 1551 1551 1551 1552 1552 1552 1553 1553 1553 1554 1554 1554 1554 1555 1555 1555 1555 1555 1555 1556 1556 1556 1556 1556 1557 1557 1556 1556 1556 1555 1554 1553 1552 1551 1551
1541 1543 1544 1545 1547 1547 1548 1549 1550 1550 1550 1551 1551 1552 1552 1553 1553 1553 1554 1554 1554 1554 1555 1555 1555 1555 1555 1555 1556 1556 1557 1556 1556 1556 1557 1556 1556 1555 1555 1554 1553 1552 1552
1539 1541 1543 1544 1545 1546 1547 1548 1549 1549 1550 1550 1551 1551 1552 1552 1553 1553 1553 1554 1554 1554 1554 1554 1555 1555 1555 1555 1555 1555 1555 1556 1556 1556 1556 1556 1556 1556 1555 1555 1554 1553 1553
1538 1539 1541 1543 1544 1545 1546 1547 1548 1548 1549 1550 1550 1550 1551 1551 1552 1552 1552 1553 1553 1553 1554 1554 1554 1554 1554 1555 1555 1555 1555 1555 1555 1555 1555 1555 1555 1556 1555 1555 1554 1554 1553